Regional Weather Roundup
Issued by NWS

Home | Current Version | Previous Version | Text Only | Print | Product List | Glossary On
Versions: 1 2 3 4 5 6 7 8 9 10 11 12 13 14 15 16 17 18 19 20 21 22 23 24 25 26 27 28 29 30 31 32 33 34 35 36 37 38 39 40 41 42 43 44 45 46 47 48 49 50
000
ASUS43 KTOP 241408
RWRKS

WEATHER ROUNDUP FOR KANSAS
NATIONAL WEATHER SERVICE GOODLAND KS
900 AM CDT WED MAY 24 2017

NOTE:  "FAIR" INDICATES FEW OR NO CLOUDS BELOW 12,000 FEET WITH NO
SIGNIFICANT WEATHER AND/OR OBSTRUCTIONS TO VISIBILITY.

KSZ001>006-013>018-027>032-041>047-241500-
NORTHWEST KANSAS

CITY           SKY/WX    TMP DP  RH WIND       PRES   REMARKS
GOODLAND       SUNNY     48  39  71 SE3       29.86F
HAYS           SUNNY     50  42  74 NW9       29.88S
HILL CITY      SUNNY     51  42  71 NW9       29.88F
RUSSELL        SUNNY     51  43  74 NW12      29.85S
$$

KSZ061>065-074>080-084>089-241500-
SOUTHWEST KANSAS

CITY           SKY/WX    TMP DP  RH WIND       PRES   REMARKS
DODGE CITY     SUNNY     52  41  66 N12       29.88F
ELKHART          N/A     53  38  56 W5          N/A
GARDEN CITY    SUNNY     50  38  63 N5        29.89F
GREAT BEND     CLOUDY    49  43  80 NW9       29.87F
LIBERAL        SUNNY     53  43  68 CALM      29.90F
PRATT          CLOUDY    48  41  77 NW10      29.87F
$$

KSZ066>073-081>083-090>101-241500-
SOUTHEAST KANSAS

CITY           SKY/WX    TMP DP  RH WIND       PRES   REMARKS
CHANUTE        PTSUNNY   56  47  71 MISG      29.76S
COFFEYVILLE    MOSUNNY   56  49  77 NW16      29.77S
HUTCHINSON     SUNNY     54  44  69 N12G21    29.84R
MEDICINE LODGE   N/A     53  43  68 N8        29.86F
NEWTON         PTSUNNY   53  46  77 N16G22    29.82F
PARSONS        MOSUNNY   56  48  74 NW14      29.77F
WICHITA INTL   MOSUNNY   54  45  71 N16       29.82F
WICHITA JABRA  SUNNY     54  45  71 N15       29.81F
WICHITA MCCONL MOSUNNY   54  44  68 N14       29.81F
WINFIELD       MOSUNNY   55  46  71 N16       29.83S
$$

KSZ007>012-019>026-033>040-048>060-102>105-241500-
NORTHEAST KANSAS

CITY           SKY/WX    TMP DP  RH WIND       PRES   REMARKS
CONCORDIA      MOSUNNY   53  47  79 N9        29.82F
EMPORIA        PTSUNNY   54  48  80 NW12      29.78S
LAWRENCE       CLOUDY    54  50  86 NW16      29.74S
MANHATTAN      MOSUNNY   56  47  71 VRB7      29.80S
MARYSVILLE     MOSUNNY   52  46  82 N12       29.79F
OLATHE IND     CLOUDY    52  49  89 NW12      29.73S
OLATHE EXE     CLOUDY    51  50  96 NW12      29.72S
SALINA         SUNNY     55  46  71 N15       29.83F
TOPEKA BILLARD CLOUDY    54  51  90 NW9       29.76R
TOPEKA FORBES  CLOUDY    54  49  83 NW14      29.75S
$$



USA.gov is the U.S. government's official web portal to all federal, state and local government web resources and services.